FW7820 Weather Reports


Display with metric or nautical units.
time (UTC)temp
F
wind
direction
speed
MPH
gust
MPH
rain 1hr
in
rain 24hr
in
rain mn
in
humidity
%
barometer
mb
20260508025739 62 34 0.0 1.0 0.00 1.55 1.55 99 1015.6
20260508025236 62 34 0.0 0.0 0.00 1.55 1.55 99 1015.7
20260508024732 62 34 0.0 0.0 0.00 1.55 1.55 99 1015.5
20260508024229 63 34 0.0 0.0 0.00 1.55 1.55 99 1015.4
20260508023726 63 34 0.0 0.0 0.00 1.55 1.55 99 1015.3
20260508023224 63 34 0.0 0.0 0.00 1.55 1.55 99 1015.5
20260508022719 63 34 0.0 0.0 0.00 1.55 1.55 99 1015.5
20260508022216 63 34 0.0 0.0 0.00 1.55 1.55 99 1015.4
20260508021713 64 34 0.0 0.0 0.00 1.55 1.55 99 1015.2
20260508021208 64 34 0.0 0.0 0.00 1.55 1.55 99 1015.3
20260508020706 64 34 0.0 0.0 0.00 1.55 1.55 99 1015.0
20260508020203 64 34 0.0 0.0 0.00 1.55 1.55 98 1014.6
20260508015700 64 24 0.0 0.0 0.00 1.55 1.55 98 1014.8
20260508015157 64 19 0.0 0.0 0.00 1.55 1.55 98 1014.5
20260508014653 64 20 1.0 1.0 0.00 1.55 1.55 98 1014.4
20260508014149 64 21 0.0 0.0 0.00 1.55 1.55 98 1014.6
20260508013646 64 339 1.0 2.0 0.00 1.55 1.55 98 1014.7
20260508013143 64 359 1.0 1.0 0.00 1.55 1.55 98 1014.8
20260508012641 64 351 1.0 1.0 0.00 1.55 1.55 98 1014.7
20260508012137 64 340 3.0 3.0 0.00 1.55 1.55 98 1014.7
20260508011636 64 17 0.0 1.0 0.00 1.55 1.55 98 1014.8
20260508011133 65 353 1.0 1.0 0.00 1.55 1.55 97 1014.7
20260508010629 65 2 1.0 2.0 0.00 1.55 1.55 97 1014.6
20260508010128 65 352 1.0 1.0 0.00 1.55 1.55 97 1014.9
20260508005624 65 357 1.0 1.0 0.00 1.55 1.55 97 1014.6
20260508005120 65 330 2.0 2.0 0.00 1.55 1.55 97 1014.8
20260508004616 65 352 0.0 0.0 0.00 1.55 1.55 96 1014.7
20260508004113 65 8 0.0 1.0 0.00 1.55 1.55 96 1014.5
20260508003609 65 353 2.0 2.0 0.00 1.55 1.55 96 1014.6
20260508003108 66 354 1.0 2.0 0.00 1.55 1.55 96 1014.6
20260508002604 66 12 1.0 1.0 0.00 1.55 1.55 95 1014.6
20260508002101 66 3 1.0 2.0 0.00 1.55 1.55 95 1014.6
20260508001556 66 328 2.0 2.0 0.00 1.55 1.55 95 1014.5
20260508001053 66 337 1.0 1.0 0.00 1.55 1.55 95 1014.3
20260508000549 66 337 2.0 2.0 0.00 1.55 1.55 94 1014.2
20260508000047 66 6 1.0 2.0 0.00 1.55 1.55 94 1014.4
20260507235543 66 341 1.0 1.0 0.00 1.55 1.55 94 1014.5
20260507235040 66 345 2.0 2.0 0.00 1.55 1.55 94 1014.5
20260507234536 66 339 1.0 1.0 0.00 1.55 1.55 94 1014.6
20260507234033 67 339 2.0 3.0 0.00 1.55 1.55 93 1014.4
20260507233530 67 0 2.0 2.0 0.00 1.55 1.55 93 1014.2
20260507233029 67 352 1.0 1.0 0.00 1.55 1.55 93 1014.4
20260507232524 67 355 2.0 2.0 0.00 1.55 1.55 93 1014.6
20260507232022 67 317 2.0 2.0 0.00 1.55 1.55 93 1014.5
20260507231518 67 344 2.0 2.0 0.00 1.55 1.55 93 1014.6
20260507231016 67 346 2.0 3.0 0.00 1.55 1.55 92 1014.6
20260507230513 67 353 4.0 5.0 0.00 1.55 1.55 92 1014.6
20260507230009 68 344 3.0 3.0 0.00 1.55 1.55 91 1014.6
20260507225504 68 355 3.0 3.0 0.00 1.55 1.55 91 1014.5
20260507225000 68 341 2.0 2.0 0.00 1.55 1.55 90 1014.5
20260507224456 68 4 2.0 2.0 0.00 1.55 1.55 91 1014.5
20260507223953 68 359 4.0 6.0 0.00 1.55 1.55 90 1014.5
20260507223449 68 5 3.0 3.0 0.00 1.55 1.55 90 1014.5
20260507222946 68 34 2.0 2.0 0.00 1.55 1.55 90 1014.5
20260507222443 68 7 3.0 3.0 0.00 1.55 1.55 90 1014.4
20260507221939 68 324 3.0 5.0 0.00 1.55 1.55 90 1014.5
20260507221436 69 324 3.0 5.0 0.00 1.55 1.55 90 1014.5
20260507220932 68 301 3.0 3.0 0.00 1.55 1.55 91 1014.4
20260507220431 69 0 3.0 5.0 0.00 1.55 1.55 90 1014.3
20260507215927 69 1 0.0 1.0 0.00 1.55 1.55 90 1014.3
20260507215423 69 326 2.0 2.0 0.00 1.55 1.55 90 1014.5
20260507214921 69 3 5.0 6.0 0.00 1.55 1.55 89 1014.4
20260507214419 69 334 0.0 1.0 0.00 1.55 1.55 89 1014.3
20260507213913 69 300 6.0 8.0 0.00 1.55 1.55 89 1013.9
20260507213410 70 0 3.0 3.0 0.00 1.55 1.55 89 1014.2
20260507212908 69 47 1.0 1.0 0.00 1.55 1.55 90 1014.2
20260507212403 69 349 3.0 3.0 0.00 1.55 1.55 89 1014.0
20260507211900 70 314 1.0 1.0 0.00 1.55 1.55 88 1014.0
20260507211356 70 346 2.0 3.0 0.00 1.55 1.55 88 1013.9
20260507210854 70 347 3.0 6.0 0.00 1.55 1.55 88 1013.8
20260507210350 70 85 3.0 5.0 0.00 1.55 1.55 87 1014.0
20260507205847 70 347 4.0 6.0 0.00 1.55 1.55 87 1013.9
20260507205344 70 313 2.0 2.0 0.00 1.55 1.55 87 1014.1
20260507204840 70 307 2.0 2.0 0.00 1.55 1.55 88 1014.1
20260507204337 70 357 3.0 3.0 0.00 1.55 1.55 88 1014.1
20260507203835 70 294 3.0 3.0 0.00 1.55 1.55 87 1014.2
20260507203333 70 285 0.0 1.0 0.00 1.55 1.55 88 1014.4
20260507202829 71 5 4.0 5.0 0.00 1.55 1.55 88 1014.3
20260507202325 71 4 1.0 1.0 0.00 1.55 1.55 89 1014.4
20260507201821 71 1 1.0 1.0 0.00 1.55 1.55 88 1014.4
20260507201317 71 76 1.0 1.0 0.00 1.55 1.55 87 1014.2
20260507200813 71 336 2.0 3.0 0.00 1.55 1.55 87 1014.3
20260507200309 71 296 3.0 3.0 0.00 1.55 1.55 86 1014.2
20260507195805 71 321 3.0 3.0 0.00 1.55 1.55 86 1014.2
20260507195305 72 2 1.0 1.0 0.00 1.55 1.55 87 1014.1
20260507194800 71 336 2.0 2.0 0.00 1.55 1.55 86 1014.0
20260507194256 71 83 0.0 0.0 0.00 1.55 1.55 86 1014.1
20260507193753 72 41 3.0 5.0 0.00 1.55 1.55 86 1014.0
20260507193250 72 67 1.0 1.0 0.00 1.55 1.55 86 1014.3
20260507192745 72 2 3.0 3.0 0.00 1.55 1.55 86 1013.8
20260507192242 72 54 2.0 2.0 0.00 1.55 1.55 85 1013.8
20260507191739 73 71 1.0 2.0 0.00 1.55 1.55 84 1014.1
20260507191236 74 333 2.0 2.0 0.00 1.55 1.55 82 1014.0
20260507190732 73 280 2.0 2.0 0.00 1.55 1.55 83 1014.0
20260507190231 73 315 3.0 5.0 0.00 1.55 1.55 83 1014.2
20260507185729 73 348 2.0 2.0 0.00 1.55 1.55 84 1013.9
20260507185225 73 29 0.0 1.0 0.00 1.55 1.55 84 1014.3
20260507184723 73 12 1.0 1.0 0.00 1.55 1.55 84 1014.1
20260507184221 72 58 4.0 5.0 0.00 1.55 1.55 85 1014.4
20260507183717 71 21 0.0 1.0 0.00 1.55 1.55 86 1014.3
20260507183209 72 121 2.0 3.0 0.00 1.55 1.55 86 1014.1
20260507182706 72 339 1.0 3.0 0.00 1.55 1.55 87 1014.3
20260507182201 72 359 1.0 1.0 0.00 1.55 1.55 87 1014.0
20260507181657 72 21 1.0 1.0 0.00 1.55 1.55 88 1014.2
20260507181154 71 91 3.0 3.0 0.00 1.55 1.55 87 1014.2
20260507180650 72 309 1.0 2.0 0.00 1.55 1.55 88 1014.3
20260507180148 71 352 3.0 5.0 0.00 1.55 1.55 88 1014.4
20260507175643 71 345 4.0 5.0 0.00 1.55 1.55 88 1014.3
20260507175135 72 359 3.0 3.0 0.00 1.55 1.55 88 1014.4
20260507174632 71 359 3.0 3.0 0.00 1.55 1.55 88 1014.4
20260507174130 72 328 2.0 2.0 0.00 1.55 1.55 88 1014.4
20260507173627 72 1 2.0 3.0 0.00 1.55 1.55 87 1014.5
20260507173124 71 348 5.0 6.0 0.00 1.55 1.55 88 1014.5
20260507172620 71 89 0.0 1.0 0.00 1.55 1.55 88 1014.7
20260507172117 71 89 3.0 3.0 0.00 1.55 1.55 87 1014.5
20260507171612 72 336 2.0 2.0 0.00 1.55 1.55 89 1014.6
20260507171109 71 44 4.0 5.0 0.00 1.55 1.55 88 1014.9
20260507170607 71 15 1.0 1.0 0.00 1.55 1.55 88 1015.0
20260507170104 71 22 1.0 2.0 0.00 1.55 1.55 89 1014.9
20260507165559 70 322 2.0 3.0 0.00 1.55 1.55 90 1014.8
20260507165055 69 66 1.0 1.0 0.00 1.55 1.55 91 1015.1
20260507164552 70 338 1.0 1.0 0.00 1.55 1.55 91 1015.1
20260507164049 70 2 1.0 2.0 0.00 1.55 1.55 91 1014.9
20260507163546 69 57 1.0 2.0 0.00 1.55 1.55 92 1015.0
20260507163044 69 356 2.0 2.0 0.00 1.55 1.55 92 1015.2
20260507162544 69 11 0.0 1.0 0.00 1.55 1.55 92 1015.0
20260507162042 69 349 1.0 1.0 0.00 1.55 1.55 94 1015.2
20260507161539 68 327 4.0 5.0 0.00 1.55 1.55 97 1015.1
20260507161034 67 358 1.0 1.0 0.00 1.55 1.55 99 1015.0
20260507160531 66 70 0.0 1.0 0.00 1.55 1.55 99 1015.1
20260507160027 66 354 2.0 3.0 0.00 1.55 1.55 99 1015.2
20260507155522 66 46 0.0 0.0 0.00 1.55 1.55 99 1015.1
20260507155020 65 48 0.0 0.0 0.00 1.55 1.55 99 1014.9
20260507154516 64 348 2.0 2.0 0.00 1.55 1.55 99 1014.7
20260507154014 64 10 1.0 2.0 0.00 1.55 1.55 99 1015.0
20260507153510 64 348 4.0 6.0 0.00 1.55 1.55 99 1014.8
20260507153006 64 334 3.0 3.0 0.00 1.55 1.55 99 1015.0
20260507152502 63 338 4.0 6.0 0.00 1.55 1.55 99 1014.9
20260507151959 63 338 2.0 2.0 0.00 1.55 1.55 99 1014.8
20260507151455 63 13 3.0 3.0 0.00 1.55 1.55 99 1014.9
20260507150952 63 333 3.0 5.0 0.00 1.55 1.55 99 1015.0
20260507150449 63 58 2.0 3.0 0.00 1.55 1.55 99 1015.1
20260507145945 62 58 2.0 2.0 0.00 1.55 1.55 99 1015.1
20260507145441 63 316 4.0 6.0 0.00 1.55 1.55 99 1014.8
20260507144938 62 64 0.0 1.0 0.00 1.55 1.55 99 1014.9
20260507144435 62 13 2.0 3.0 0.00 1.55 1.55 99 1014.8
20260507143932 62 24 3.0 5.0 0.00 1.55 1.55 99 1015.1
20260507143430 62 232 2.0 3.0 0.00 1.55 1.55 99 1015.1
20260507142926 62 332 5.0 6.0 0.00 1.55 1.55 99 1015.1
20260507142422 62 351 3.0 5.0 0.00 1.55 1.55 99 1015.1
20260507141920 62 356 2.0 3.0 0.00 1.55 1.55 99 1015.2
20260507141415 62 5 1.0 2.0 0.00 1.55 1.55 99 1015.1
20260507140912 62 303 5.0 7.0 0.00 1.55 1.55 99 1015.1
20260507140409 62 355 4.0 5.0 0.00 1.55 1.55 99 1014.9
20260507135907 62 332 4.0 6.0 0.00 1.55 1.55 99 1014.8
20260507135403 62 338 4.0 5.0 0.00 1.55 1.55 99 1014.9
20260507134901 62 358 2.0 2.0 0.00 1.55 1.55 99 1014.8
20260507134357 62 335 3.0 3.0 0.00 1.55 1.55 99 1014.7
20260507133853 62 11 3.0 3.0 0.00 1.55 1.55 99 1014.9
20260507133348 62 0 1.0 2.0 0.00 1.55 1.55 99 1014.6
20260507132847 62 343 3.0 5.0 0.00 1.55 1.55 99 1014.5
20260507132343 63 30 4.0 6.0 0.00 1.55 1.55 99 1014.6
20260507131841 63 7 1.0 2.0 0.00 1.55 1.55 99 1014.4
20260507131337 63 17 1.0 1.0 0.00 1.55 1.55 99 1014.5
20260507130834 63 334 2.0 5.0 0.00 1.55 1.55 99 1014.7
20260507130331 63 358 4.0 5.0 0.00 1.55 1.55 99 1014.4
20260507125830 63 34 0.0 0.0 0.00 1.55 1.55 99 1014.2
20260507125327 63 1 3.0 3.0 0.00 1.55 1.55 99 1014.1
20260507124824 64 355 3.0 3.0 0.00 1.55 1.55 99 1013.9
20260507124320 64 320 2.0 2.0 0.00 1.55 1.55 99 1014.0
20260507123819 64 315 3.0 3.0 0.00 1.55 1.55 99 1013.7
20260507123316 64 317 2.0 3.0 0.00 1.55 1.55 99 1013.7
20260507122812 64 336 2.0 3.0 0.00 1.55 1.55 99 1013.3
20260507122308 65 345 1.0 1.0 0.00 1.55 1.55 99 1013.2
20260507121804 65 334 1.0 2.0 0.00 1.55 1.55 99 1013.1
20260507121300 65 335 2.0 2.0 0.00 1.55 1.55 99 1013.3
20260507120756 65 325 2.0 2.0 0.00 1.55 1.55 99 1013.2
20260507120253 65 351 1.0 2.0 0.00 1.55 1.55 99 1013.0
20260507115749 65 349 3.0 3.0 0.00 1.55 1.55 99 1013.0
20260507115245 65 4 1.0 2.0 0.00 1.55 1.55 99 1012.6
20260507114741 65 342 3.0 5.0 0.00 1.55 1.55 99 1012.5
20260507114238 65 346 3.0 3.0 0.00 1.55 1.55 99 1012.4
20260507113736 65 322 1.0 2.0 0.00 1.55 1.55 99 1012.1
20260507113232 65 347 3.0 5.0 0.00 1.55 1.55 99 1012.1
20260507112730 65 350 2.0 3.0 0.00 1.55 1.55 99 1012.4
20260507112227 66 313 4.0 6.0 0.00 1.55 1.55 99 1012.1
20260507111725 66 339 4.0 5.0 0.00 1.55 1.55 99 1012.5
20260507111221 66 37 2.0 3.0 0.00 1.55 1.55 99 1012.1
20260507110717 66 51 1.0 2.0 0.00 1.55 1.55 99 1012.0
20260507110214 66 349 1.0 2.0 0.00 1.55 1.55 99 1012.3
20260507105711 67 5 0.0 0.0 0.00 1.55 1.55 99 1012.0
20260507105206 67 335 3.0 5.0 0.00 1.55 1.55 99 1011.8
20260507104704 67 7 0.0 0.0 0.00 1.55 1.55 99 1011.8
20260507104200 67 8 0.0 1.0 0.00 1.55 1.55 99 1011.6
20260507103656 67 355 1.0 1.0 0.00 1.55 1.55 99 1011.6
20260507103153 67 340 3.0 3.0 0.00 1.55 1.55 99 1011.6
20260507102649 67 359 1.0 1.0 0.00 1.55 1.55 99 1011.2
20260507102146 67 351 3.0 3.0 0.00 1.55 1.55 99 1011.3
20260507101642 67 47 0.0 0.0 0.05 1.55 1.55 99 1011.5
20260507101138 67 37 1.0 1.0 0.05 1.55 1.55 99 1011.4
20260507100635 68 322 0.0 1.0 0.00 1.54 1.54 99 1011.4
20260507100134 68 358 1.0 2.0 0.00 1.54 1.54 99 1011.3
20260507095631 68 7 0.0 1.0 0.07 1.54 1.54 99 1011.2
20260507095127 68 0 1.0 2.0 0.12 1.54 1.54 99 1011.1
20260507094624 68 6 2.0 2.0 0.05 1.53 1.53 99 1011.5
20260507094121 68 53 0.0 0.0 0.05 1.53 1.53 99 1011.7
20260507093618 68 79 0.0 0.0 0.24 1.52 1.52 99 1011.1
20260507093117 68 34 1.0 2.0 0.78 1.52 1.52 99 1011.2
20260507092613 68 46 0.0 0.0 0.54 1.48 1.48 99 1011.5
20260507092109 68 37 1.0 1.0 0.00 1.39 1.39 99 1011.1
20260507091606 68 54 0.0 0.0 0.00 1.39 1.39 99 1010.9
20260507091102 68 338 1.0 2.0 0.00 1.39 1.39 99 1011.1
20260507090558 68 105 1.0 1.0 0.07 1.39 1.39 99 1010.8
20260507090055 69 96 1.0 1.0 0.24 1.39 1.39 99 1011.6
20260507085552 69 343 0.0 1.0 1.21 1.38 1.38 99 1010.8
20260507085049 69 317 5.0 6.0 1.87 1.35 1.35 99 1010.4
20260507084545 70 14 2.0 3.0 1.51 1.19 1.19 99 1011.2
20260507084043 70 28 0.0 0.0 0.90 1.04 1.04 99 1010.6
20260507083539 71 20 1.0 1.0 0.24 0.93 0.93 99 1010.5
20260507083036 71 69 0.0 0.0 0.00 0.89 0.89 99 1010.6
20260507082532 71 65 0.0 0.0 0.00 0.89 0.89 99 1010.4
20260507082028 71 71 0.0 0.0 0.07 0.89 0.89 99 1010.4
20260507081525 71 324 2.0 2.0 0.12 0.89 0.89 99 1010.2
20260507081022 71 96 0.0 1.0 0.05 0.88 0.88 99 1010.3
20260507080518 71 52 0.0 0.0 0.00 0.87 0.87 99 1010.2
20260507080014 71 104 0.0 1.0 0.07 0.87 0.87 99 1010.8
20260507075510 71 70 0.0 0.0 0.19 0.87 0.87 99 1010.6
20260507075007 71 80 0.0 1.0 0.12 0.86 0.86 99 1010.7
20260507074503 71 53 0.0 1.0 0.00 0.84 0.84 99 1010.1
20260507074002 71 68 0.0 0.0 0.00 0.84 0.84 99 1010.4
20260507073457 71 84 0.0 1.0 0.00 0.84 0.84 99 1010.5
20260507072954 71 62 0.0 0.0 0.35 0.84 0.84 99 1010.8
20260507072452 71 87 0.0 0.0 0.54 0.84 0.84 99 1010.6
20260507071949 71 60 0.0 0.0 0.35 0.78 0.78 99 1010.7
20260507071446 71 83 0.0 0.0 0.24 0.75 0.75 99 1010.7
20260507070942 71 67 0.0 0.0 0.12 0.73 0.73 99 1010.7
20260507070440 71 77 0.0 0.0 0.00 0.71 0.71 99 1010.6
20260507065936 71 70 0.0 0.0 0.00 0.71 0.71 99 1010.9
20260507065433 71 66 0.0 0.0 0.07 0.71 0.71 99 1011.0
20260507064930 71 74 0.0 0.0 0.12 0.71 0.71 99 1011.0
20260507064428 71 66 0.0 0.0 0.47 0.70 0.70 99 1010.8
20260507063926 71 81 0.0 0.0 0.59 0.69 0.69 99 1011.0
20260507063423 71 66 0.0 0.0 0.54 0.62 0.62 99 1011.1
20260507062920 71 73 0.0 0.0 0.97 0.59 0.59 99 1011.2
20260507062417 72 71 0.0 0.0 1.21 0.53 0.53 99 1011.1
20260507061914 72 79 0.0 0.0 0.78 0.43 0.43 99 1010.8
20260507061412 72 74 0.0 0.0 0.17 0.33 0.33 99 1010.9
20260507060911 72 66 0.0 0.0 0.00 0.30 0.30 99 1010.5
20260507060407 72 74 0.0 0.0 0.00 0.30 0.30 99 1010.5
20260507055904 72 45 0.0 0.0 0.00 0.30 0.30 99 1010.7
20260507055359 72 83 0.0 0.0 0.00 0.30 0.30 99 1010.7
20260507054856 72 68 0.0 0.0 0.00 0.30 0.30 99 1010.6
20260507054352 72 88 0.0 0.0 0.00 0.30 0.30 99 1010.9
20260507053849 72 345 3.0 3.0 0.00 0.30 0.30 99 1010.7
20260507053347 71 96 1.0 1.0 0.00 0.30 0.30 99 1010.8
20260507052846 71 132 3.0 3.0 0.00 0.30 0.30 99 1010.3
20260507052342 71 105 0.0 1.0 0.07 0.30 0.30 99 1010.2
20260507051839 71 246 2.0 2.0 0.12 0.30 0.30 99 1009.4
20260507051337 72 355 2.0 2.0 0.78 0.29 0.29 99 1009.6
20260507050834 72 71 0.0 0.0 2.29 0.28 0.28 99 1009.5
20260507050330 72 18 3.0 3.0 2.93 0.16 0.16 99 1009.9
20260507045827 74 359 7.0 9.0 3.28 1.95 1.95 99 1009.9
20260507045324 74 351 3.0 3.0 3.47 1.74 1.74 99 1009.3
20260507044821 74 35 5.0 7.0 2.48 1.40 1.40 99 1009.9
20260507044317 74 11 1.0 1.0 1.44 1.13 1.13 99 1010.3
20260507043813 74 309 2.0 2.0 0.71 0.99 0.99 99 1009.6
20260507043310 74 66 0.0 0.0 0.19 0.89 0.89 99 1010.3
20260507042806 74 43 0.0 0.0 0.07 0.87 0.87 99 1009.8
20260507042306 74 56 0.0 0.0 0.00 0.86 0.86 99 1010.1
20260507041759 74 60 0.0 0.0 0.00 0.86 0.86 99 1009.9
20260507041255 74 59 0.0 0.0 0.00 0.86 0.86 99 1010.4
20260507040753 74 345 0.0 0.0 0.00 0.86 0.86 99 1010.2
20260507040249 74 68 0.0 0.0 0.00 0.86 0.86 99 1009.8
20260507035745 74 67 0.0 0.0 0.00 0.86 0.86 99 1010.5
20260507035240 74 61 0.0 0.0 0.00 0.86 0.86 99 1010.2
20260507034738 74 71 0.0 0.0 0.00 0.86 0.86 99 1009.8
20260507034235 74 73 0.0 0.0 0.00 0.86 0.86 99 1010.2
20260507033734 74 139 0.0 0.0 0.00 0.86 0.86 99 1010.3
20260507033231 74 175 0.0 0.0 0.00 0.86 0.86 99 1010.2
20260507032728 73 193 0.0 0.0 0.00 0.86 0.86 99 1010.1
20260507032224 73 75 0.0 0.0 0.00 0.86 0.86 99 1010.2
20260507031721 73 71 0.0 0.0 0.00 0.86 0.86 99 1010.4
20260507031217 73 61 0.0 0.0 0.00 0.86 0.86 99 1010.8
20260507030714 73 62 0.0 0.0 0.00 0.86 0.86 99 1010.9
20260507030212 73 61 0.0 0.0 0.00 0.86 0.86 99 1011.0